Weather History for Syracuse, NY

Change the Weather History Date:

Friday, April 13, 2012

  Actual Average Record
Temperature  
Mean Temperature 47 °F 46 °F  
Max Temperature 61 °F 56 °F 85 °F (1945)
Min Temperature 33 °F 36 °F 21 °F (1940)
Degree Days  
Heating Degree Days 18 19  
Month to date heating degree days 285 282  
Since 1 July heating degree days 4719 6070  
Cooling Degree Days 0 0  
Month to date cooling degree days 0 0  
Year to date cooling degree days 1 0  
Moisture  
Dew Point 29 °F    
Average Humidity 46    
Maximum Humidity 64    
Minimum Humidity 27    
Precipitation  
Precipitation 0.00 in 0.11 in 1.42 in (2004)
Month to date precipitation 0.23 1.46  
Year to date precipitation 7.48 8.98  
Snow  
Snow 0.00 in 0.20 in 4.10 in (1961)
Month to date snowfall 0.0 2.5  
Since 1 July snowfall 50.6 122.4  
Snow Depth 0.00 in    
Sea Level Pressure  
Sea Level Pressure 30.20 in    
Wind  
Wind Speed 5 mph (WNW)    
Max Wind Speed 17 mph    
Max Gust Speed 22 mph    
Visibility 10 miles    
Events      
T = Trace of Precipitation, MM = Missing Value Source: NWS Daily Summary

Daily Weather History Graph

Daily Weather History Graph

Search for Another Location

Airport:

Trip Planner

Search our weather history database for the weather conditions in past years. The results will help you decide how hot, cold, wet, or windy it might be!

Date:

Astronomy

Apr. 13, 2012 Rise Set
Actual Time 6:24 AM EDT 7:45 PM EDT
Civil Twilight 5:55 AM EDT 8:14 PM EDT
Nautical Twilight 5:20 AM EDT 8:50 PM EDT
Astronomical Twilight 4:42 AM EDT 9:28 PM EDT
Moon 2:19 AM EDT (4/13) 12:21 PM EDT (4/13)
Length of Visible Light 14h 19m
Length of Day
13h 20m
Waning Gibbous, 48% of the Moon is Illuminated
Apr 13
Waning Gibbous
Apr 21
New
Apr 29
First Quarter
May 5
Full
May 12
Last Quarter

Hourly Weather History & Observations

Time (EDT) Temp. Windchill Dew Point Humidity Pressure Visibility Wind Dir Wind Speed Gust Speed Precip Events Conditions
12:54 AM 42.1 °F - 29.1 °F 60% 30.18 in 10.0 mi Calm Calm - N/A   Mostly Cloudy
1:54 AM 40.8 °F - 29.8 °F 65% 30.18 in 10.0 mi Calm Calm - N/A   Scattered Clouds
2:54 AM 40.6 °F 37.5 °F 28.9 °F 63% 30.17 in 10.0 mi WSW 4.6 mph - N/A   Partly Cloudy
3:54 AM 41.0 °F 37.1 °F 28.4 °F 61% 30.17 in 10.0 mi WSW 5.8 mph - N/A   Scattered Clouds
4:54 AM 40.3 °F - 28.8 °F 63% 30.18 in 10.0 mi Calm Calm - -   Partly Cloudy
5:54 AM 39.4 °F - 28.4 °F 65% 30.19 in 10.0 mi Calm Calm - N/A   Partly Cloudy
6:54 AM 39.4 °F - 27.7 °F 63% 30.22 in 10.0 mi Calm Calm - N/A   Partly Cloudy
7:54 AM 44.4 °F 40.0 °F 30.6 °F 58% 30.25 in 10.0 mi WSW 8.1 mph - N/A   Clear
8:54 AM 45.0 °F 40.6 °F 30.0 °F 56% 30.26 in 10.0 mi West 8.1 mph - N/A   Clear
9:53 AM 46.6 °F - 30.4 °F 53% 30.27 in 10.0 mi West 8.1 mph - N/A   Clear
10:56 AM 48.9 °F - 31.8 °F 52% 30.27 in 10.0 mi WSW 5.8 mph - N/A   Clear
11:52 AM 53.6 °F - 32.0 °F 44% 30.25 in 10.0 mi WSW 6.9 mph - N/A   Partly Cloudy
12:54 PM 55.2 °F - 29.7 °F 38% 30.24 in 10.0 mi West 6.9 mph - N/A   Scattered Clouds
1:50 PM 57.4 °F - 26.1 °F 30% 30.19 in 10.0 mi Calm Calm - N/A   Mostly Cloudy
2:54 PM 59.0 °F - 27.0 °F 29% 30.18 in 10.0 mi NNW 8.1 mph 18.4 mph N/A   Scattered Clouds
3:54 PM 60.1 °F - 27.0 °F 28% 30.17 in 10.0 mi NNW 10.4 mph - N/A   Partly Cloudy
4:54 PM 59.0 °F - 28.0 °F 31% 30.16 in 10.0 mi North 9.2 mph - N/A   Partly Cloudy
5:54 PM 57.9 °F - 28.9 °F 33% 30.16 in 10.0 mi NW 10.4 mph - N/A   Partly Cloudy
6:54 PM 54.0 °F - 28.9 °F 38% 30.18 in 10.0 mi NNW 13.8 mph - N/A   Partly Cloudy
7:54 PM 50.0 °F - 27.0 °F 41% 30.17 in 10.0 mi NW 6.9 mph - N/A   Partly Cloudy
8:54 PM 46.9 °F - 27.0 °F 46% 30.17 in 10.0 mi WSW 4.6 mph - N/A   Partly Cloudy
9:54 PM 46.0 °F - 28.9 °F 51% 30.17 in 10.0 mi Calm Calm - N/A   Clear
10:54 PM 42.1 °F 40.2 °F 28.9 °F 60% 30.16 in 10.0 mi SW 3.5 mph - N/A   Partly Cloudy
11:54 PM 43.0 °F - 28.0 °F 56% 30.17 in 10.0 mi Calm Calm - N/A   Partly Cloudy